Location: Drocourt
(49.0571°N, 1.7669°E)
Time: 08:09:45
(UTC+00:00)

Cosmos 1943 Rocket - Pass Details

Date: 09 February 2023
Orbit: 811 x 844 km, 71.0° (Epoch: 22 March)

Event Time Altitude Azimuth Distance (km) Brightness Sun altitude
Rises 18:39:21 0° 334° (NNW) 3,415 5.7 -16.2°
Reaches altitude 10° 18:42:05 10° 345° (NNW) 2,476 4.8 -16.6°
Maximum altitude 18:47:09 32° 48° (NE) 1,405 2.9 -17.5°
Enters shadow 18:48:29 29° 74° (ENE) 1,502 2.9 -17.7°
